User: anonymous   Login
Location: Unspecified
(0.0000°N, 0.0000°E)
Time: 00:27:47
(UTC+01:00)
Language:

CZ-4B DEB - Orbit

View from above orbital plane
View from above orbital plane
View from above satellite
View from above satellite

Ground track
Ground track

The orbit data is extracted from the following two-line orbital elements,

1 33411U 08053D   17053.68988024  .00034616  00000-0  52336-3 0  9991
2 33411  97.4242  97.6106 0004778  28.9309 331.2209 15.54621047458538
Epoch (UTC): 22 February 2017 16:33:25
Eccentricity: 0.0004778
inclination: 97.4242°
perigee height: 400 km
apogee height: 406 km
right ascension of ascending node: 97.6106°
argument of perigee: 28.9309°
revolutions per day: 15.54621047
mean anomaly at epoch: 331.2209°
orbit number at epoch: 45853

The dashed part of the orbit path shows where the satellite is in the earth's shadow,  

DLR